Location: Navarre
(52.9016°N, 113.4144°W)
Time: 14:17:16
(UTC+00:00)

ISS - Pass Details

Date: 06 December 2021
Orbit: 413 x 422 km, 51.6° (Epoch: 18 January)

Event Time Altitude Azimuth Distance (km) Brightness Sun altitude
Rises 01:22:22 0° 280° (W) 2,386 1.3 -17.4°
Reaches altitude 10° 01:24:46 10° 265° (W) 1,515 0.3 -17.8°
Maximum altitude 01:27:27 22° 213° (SSW) 980 -1.4 -18.2°
Drops below altitude 10° 01:30:08 10° 160° (SSE) 1,504 -1.0 -18.6°
Enters shadow 01:30:21 - 158° (SSE) 1,573 -0.9 -18.6°
